Location: Haselauer Kamperrege
(53.6500°N, 9.6167°E)
Time: 05:07:58
(UTC+00:00)

Daily predictions for brighter satellites

Satellite Brightness Start Highest point End
(mag) Time Altitude Azimuth Time Altitude Azimuth Time Altitude Azimuth
SL-16 R/B 4.2 01:46:11 22° N 01:46:11 22° N 01:48:21 10° NNE
Cosmos 1980 Rocket 4.4 01:41:57 17° N 01:43:31 19° NNE 01:47:28 10° ENE
ADEOS II 4.1 01:46:34 10° NNE 01:48:31 23° NNE 01:48:31 23° NNE
ARIANE 5 R/B 4.4 01:53:25 10° NNE 01:55:49 25° NE 01:55:49 25° NE
Resurs 1-4 Rocket 4.3 01:58:32 10° N 01:59:56 18° N 01:59:56 18° N
CZ-2D R/B 4.3 02:10:55 10° N 02:12:13 17° N 02:12:13 17° N
NOSS 3-2 (A) 4.3 02:24:30 39° SE 02:24:41 39° ESE 02:30:42 10° NE
Lacrosse 4 Rocket 4.2 02:31:40 12° ESE 02:32:11 12° ESE 02:33:45 10° E
IDEFIX/ARIANE 42P 3.3 02:31:55 10° NNE 02:35:46 48° NE 02:35:46 48° NE
USA 234 3.1 02:34:34 10° ENE 02:41:09 89° NNW 02:41:14 88° W
Cosmos 2279 Rocket 4.2 02:41:59 10° N 02:48:13 67° ENE 02:54:22 10° SSE
SL-16 R/B 4.4 02:44:43 10° NNW 02:48:40 19° NNE 02:52:42 10° ENE
Cosmos 1656 3.8 02:49:54 74° E 02:49:54 74° E 02:55:24 10° SE
Cosmos 1634 Rocket 4.2 02:46:28 10° NNW 02:51:35 59° NNW 02:51:35 59° NNW
ADEOS Rocket 2.9 02:50:31 10° SSE 02:55:57 70° ENE 03:01:36 10° NNW
Cosmos 2344 3.8 02:56:53 42° S 02:59:28 64° SE 03:07:35 10° NE
Meteor 1-21 4.1 03:04:11 76° NNW 03:04:11 76° NNW 03:09:28 10° NNE
Cosmos 2237 Rocket 4.3 03:03:13 14° NNW 03:04:05 14° N 03:07:06 10° NNE
Cosmos 1697 Rocket 3.1 03:03:55 26° NNW 03:07:05 62° NE 03:12:42 10° SE
Cosmos 1536 Rocket 4.5 03:11:55 32° SSE 03:13:37 48° E 03:17:57 10° NNE
Cosmos 1943 4.2 03:17:52 32° NNW 03:17:52 32° NNW 03:22:24 10° NNE
Cosmos 468 4.4 03:18:59 75° WNW 03:18:59 75° WNW 03:24:19 10° NNE
NOSS 3-2 (C) 3.9 03:21:46 32° S 03:24:19 56° SE 03:30:50 10° NE
MSX 3.7 03:20:00 10° NNE 03:25:44 72° WNW 03:26:51 57° SW
Cosmos 44 Rocket 3.8 03:29:14 49° S 03:29:14 49° S 03:33:19 10° SSE
SL-16 R/B 4.1 03:28:04 16° NNW 03:28:48 17° NNW 03:32:23 10° NNE
Cosmos 1980 Rocket 2.9 03:23:46 12° NNW 03:28:50 52° NE 03:34:18 10° SE
CZ-4B R/B 2.4 03:26:30 10° SE 03:29:51 48° ENE 03:30:17 45° NE
ADEOS II 3.7 03:26:55 10° N 03:29:26 21° NNW 03:29:26 21° NNW
PSLV R/B 3.6 03:30:32 10° NNE 03:34:49 74° ESE 03:36:13 42° S
Cosmos 1867 4.4 03:35:03 35° NW 03:35:37 36° NNW 03:40:40 10° NE
ARIANE 5 R/B 3.4 03:32:40 10° N 03:36:09 33° NW 03:36:09 33° NW
CENTAUR R/B 2.8 03:35:39 29° SSW 03:39:03 67° SE 03:46:17 10° NE
Cosmos 2360 4.2 03:34:50 16° NNW 03:39:33 80° NE 03:45:15 10° SE
Resurs 1-4 Rocket 4.3 03:40:15 10° NNW 03:41:00 11° NNW 03:41:00 11° NNW
Tsikada Rocket 4.4 03:42:59 39° WNW 03:42:59 39° WNW 03:48:47 10° N
ERS-2 3.4 03:45:39 10° S 03:47:31 29° S 03:47:31 29° S
KORONAS-FOTON 3.7 03:51:42 38° S 03:53:09 89° E 03:57:04 10° NNE
Cosmos 967 Rocket 4.4 03:49:43 22° NW 03:53:58 79° SW 04:00:15 10° SE
Cosmos 2278 3.8 03:49:30 10° NNW 03:55:12 76° NE 04:00:52 10° SE
SAR-Lupe-4 3.8 03:52:04 10° SSE 03:55:37 68° ENE 03:59:12 10° N
ALOS 3.0 03:51:41 10° NNE 03:56:18 55° E 04:00:53 10° S
Cosmos 2180 Rocket 4.5 03:51:21 10° NNW 03:57:29 57° W 04:03:31 10° S
Cosmos 2322 Rocket 3.8 03:53:58 10° NNW 03:59:02 31° NE 04:04:04 10° ESE
CZ-2C R/B 3.9 03:56:41 10° N 03:59:22 30° NNW 03:59:22 30° NNW
CZ-2C R/B 2.3 03:58:43 10° N 04:03:45 66° WNW 04:07:18 18° SSW
Cosmos 1300 3.0 04:00:44 10° N 04:04:34 67° ENE 04:08:22 10° SSE
Nadezhda 4 Rocket 4.0 03:58:45 10° S 04:04:51 82° E 04:11:03 10° NNE
Cosmos 1726 Rocket 3.9 04:00:38 10° N 04:05:06 69° ENE 04:09:32 10° SSE
Abrixas rocket 3.6 04:06:51 23° S 04:06:51 23° S 04:08:43 10° SE
ADEOS 3.8 04:01:04 10° NNE 04:06:18 70° ESE 04:11:31 10° S
PAYLOAD A 4.1 04:03:48 10° N 04:08:43 56° WNW 04:12:20 19° SW
ISS -1.2 04:07:10 11° S 04:09:09 17° SE 04:11:25 10° ESE
Lacrosse 4 Rocket 1.3 04:08:01 27° SSW 04:10:08 79° SE 04:14:13 10° NE
PSLV R/B 4.5 04:06:01 10° SSE 04:10:10 62° ENE 04:14:22 10° N
GP-B 3.7 04:10:49 35° WNW 04:10:49 35° WNW 04:14:27 10° NNW
USA 238 DEB 3.6 04:07:03 27° WSW 04:11:01 74° NW 04:18:04 10° NE
USA 238 3.6 04:07:08 27° WSW 04:11:06 74° NW 04:18:10 10° NE
Cosmos 1833 Rocket 3.1 04:05:57 10° SSW 04:11:32 64° ESE 04:17:08 10° NE
In-Cosmos 22 4.2 04:09:21 21° SW 04:12:46 52° WNW 04:18:07 10° N
Cosmos 1689 Rocket 2.5 04:10:01 10° SSE 04:12:55 60° ENE 04:15:49 10° N
SAR-Lupe-1 3.9 04:09:40 10° SSE 04:13:15 85° WSW 04:16:52 10° NNW
Cosmos 1025 Rocket 3.5 04:14:23 36° W 04:14:53 37° WNW 04:19:01 10° N
Cosmos 1484 Rocket 2.8 04:11:08 10° NNE 04:15:04 80° ESE 04:18:54 10° S
NOSS 3-2 (A) 3.5 04:11:55 28° WSW 04:15:13 66° NW 04:22:10 10° NE
IDEFIX/ARIANE 42P 3.7 04:12:10 10° N 04:16:19 24° NW 04:16:34 24° WNW
Meteor 1-24 Rocket 4.4 04:11:34 10° S 04:17:05 60° E 04:22:52 10° NNE
Cosmos 1674 2.8 04:16:31 36° WSW 04:17:36 49° WNW 04:21:20 10° N
Cosmos 2228 2.9 04:13:50 10° NNW 04:18:11 72° W 04:22:32 10° S
Cosmos 2369 3.7 04:12:59 12° NW 04:18:14 57° WSW 04:23:44 10° S
Cosmos 1269 Rocket 4.0 04:15:37 16° SW 04:19:51 67° WNW 04:25:11 10° NNE
Cosmos 1606 Rocket 3.5 04:15:39 10° NNW 04:20:08 73° W 04:24:36 10° S
CZ-4B R/B 4.2 04:18:08 10° NNE 04:21:55 42° E 04:25:52 10° S
USA 234 3.4 04:17:35 10° ENE 04:24:04 68° N 04:28:35 21° W
ATLAS 3B R/B 3.5 04:19:01 10° SSW 04:25:17 50° SE 04:31:41 10° NE
METEOR-M 4.2 04:21:01 10° NNE 04:26:25 79° ESE 04:31:45 10° SSW
Cosmos 1626 2.0 04:23:02 10° SSW 04:26:44 83° W 04:30:27 10° N
Cosmos 2082 Rocket 3.0 04:24:39 10° S 04:30:05 53° ESE 04:35:34 10° NE
COSMO-SKYMED 1 2.5 04:26:51 10° SSE 04:31:11 79° WSW 04:35:34 10° NNW
SL-16 R/B 3.0 04:28:33 10° NNW 04:34:08 52° NE 04:39:40 10° SE
NOSS 5 (C) 4.4 04:34:25 24° WSW 04:36:25 66° NW 04:39:32 10° NE
Meteor 1-31 Rocket 2.7 04:35:08 10° NNE 04:39:06 79° WNW 04:43:02 10° SSW
Lacrosse 5 rocket 2.3 04:35:59 10° SSW 04:39:26 40° SE 04:43:03 10° ENE
Cosmos 2333 Rocket 4.2 04:35:03 10° NNW 04:39:29 22° NNE 04:43:53 10° E
Meteor 2-5 Rocket 3.7 04:34:42 10° SSW 04:40:25 79° WNW 04:46:19 10° NNE
ADEOS Rocket 3.8 04:37:54 10° SW 04:42:10 23° W 04:46:32 10° NW
CREW DRAGON DEMO-1 DEB 3.3 04:42:58 27° WSW 04:44:15 45° SSW 04:47:09 10° ESE
Meteor PRIRODA 4.2 04:40:52 10° NNE 04:44:30 62° ESE 04:48:07 10° S
Meteor 2-8 Rocket 4.5 04:38:18 10° NNW 04:44:31 88° E 04:50:42 10° S
Cosmos 1553 Rocket 4.2 04:39:04 10° N 04:45:15 74° ENE 04:51:20 10° SSE
COSMOS 2406 3.2 04:43:03 10° SW 04:48:41 65° NW 04:54:21 10° NNE
deb Kosmos-1763 3.9 04:45:07 10° SSW 04:48:43 87° WNW 04:52:20 10° NNE
Okean 1-7 Rocket 4.1 04:44:46 10° S 04:49:16 67° E 04:53:47 10° NNE
deb Chang Zheng 4 3.5 04:45:45 10° N 04:49:56 59° WNW 04:54:08 10° SSW
CZ-4B R/B 3.9 04:45:42 10° N 04:49:59 64° WNW 04:54:04 10° SSW
Cosmos 2058 Rocket 3.0 04:45:31 10° NNW 04:50:02 72° W 04:54:30 10° S
Cosmos 2237 Rocket 4.4 04:47:18 10° NNW 04:50:38 16° NNE 04:53:59 10° NE
Cosmos 1697 Rocket 3.4 04:45:52 10° NW 04:50:45 31° WSW 04:55:37 10° SSW
Cosmos 1455 3.1 04:50:10 10° N 04:53:58 52° ENE 04:57:45 10° SSE
Cosmos 1992 Rocket 4.5 04:49:56 10° NW 04:54:43 38° WSW 04:59:30 10° S
ARGOS Delta rocket 4.1 04:54:19 10° N 04:59:37 68° WNW 05:05:03 10° SSW
Cosmos 2360 Rocket 3.3 04:55:59 10° NNW 05:01:21 42° NE 05:06:41 10° ESE
CZ-4B R/B 3.0 05:00:01 10° SW 05:02:20 17° W 05:03:23 15° WNW
Cosmos 2026 Rocket 4.0 04:56:01 10° SSW 05:02:24 82° W 05:08:50 10° N
FENGYUN 3A 3.9 04:58:13 10° N 05:03:27 50° WNW 05:08:40 10° SW
Cosmos 1892 Rocket 3.5 05:01:46 10° SSW 05:06:05 66° WNW 05:10:28 10° N
Cosmos 1400 Rocket 3.4 05:02:52 10° NNW 05:06:31 35° W 05:10:06 10° SSW
Cosmos 2195 Rocket 4.4 05:00:47 10° SSW 05:06:57 68° WNW 05:13:07 10° N
H-2A R/B 3.7 05:04:52 10° NNE 05:09:13 51° E 05:13:25 10° S
Cosmos 1980 Rocket 2.7 05:07:37 10° NW 05:12:42 36° WSW 05:17:46 10° S
Cosmos 2344 4.0 05:06:55 10° W 05:14:13 54° NNW 05:23:08 10° NE
YAOGAN 6 4.1 05:11:32 10° NNE 05:15:06 43° E 05:18:37 10° S
NOSS 3-2 (C) 3.8 05:09:26 10° WSW 05:15:22 54° NNW 05:22:18 10° NE
SL-16 R/B 4.3 05:12:27 10° NNW 05:15:25 14° N 05:18:22 10° NE
SL-19 R/B 4.2 05:13:31 10° N 05:16:08 31° WNW 05:18:40 10° SW
SJ-12 4.1 05:14:32 10° N 05:18:33 48° WNW 05:22:30 10° SW
Meteor 2-15 4.4 05:12:58 10° NNW 05:19:04 79° W 05:25:09 10° S
SKYMED 2 4.4 05:15:41 10° SSW 05:19:30 29° W 05:23:21 10° NNW
Cosmos 2251 Rocket 3.5 05:14:52 10° SW 05:20:13 70° WNW 05:25:35 10° NNE
Okean O Rocket 3.4 05:18:31 10° NNE 05:22:35 37° E 05:26:39 10° SSE
MOS 1 Rocket 3.0 05:18:31 10° SSE 05:22:49 80° WSW 05:27:09 10° NNW
CZ-2C R/B 3.4 05:21:21 10° SSE 05:26:51 61° ENE 05:32:25 10° N
Cosmos 2219 Rocket 3.7 05:23:37 10° NNW 05:28:42 32° NE 05:33:43 10° ESE
Cosmos 1461 3.2 05:24:19 10° SW 05:28:56 75° NW 05:33:43 10° NE
CENTAUR R/B 3.1 05:23:45 10° W 05:30:06 52° NNW 05:37:39 10° NE
Cosmos 614 Rocket 4.1 05:26:00 10° SSW 05:31:09 84° ESE 05:36:18 10° NNE
Cosmos 1626 Rocket 3.7 05:27:14 10° S 05:31:42 86° E 05:36:13 10° NNE
ALOS 3.3 05:29:35 10° N 05:33:27 26° WNW 05:37:19 10° WSW
Cosmos 1602 Rocket 4.0 05:29:27 10° S 05:33:51 71° E 05:38:20 10° NNE
SJ-7 4.4 05:29:55 10° NNE 05:33:59 84° WNW 05:37:58 10° SSW
SL-14 R/B 4.4 05:31:58 10° WSW 05:35:14 23° WNW 05:38:32 10° N
Cosmos 1315 Rocket 3.1 05:31:46 10° NNW 05:35:44 47° W 05:39:42 10° S
DNEPR-1 R/B 3.9 05:31:48 10° NW 05:37:17 78° SW 05:41:50 10° SE
